Location: Stara Lesna
(49.1528°N, 20.2911°E)
Time: 21:32:59
(UTC+01:00)

NOSS 3-2 (C) - Visible Passes

Search period start: 11 December 2019 00:00
Search period end: 21 December 2019 00:00
Orbit: 821 x 1392 km, 63.4° (Epoch: 25 November)

Date Brightness Start Highest point End Pass type
(mag) Time Alt. Az. Time Alt. Az. Time Alt. Az.
11 Dec 6.7 05:07:09 10° ESE 05:08:55 11° ESE 05:10:45 10° E visible
11 Dec 6.2 16:11:35 10° NW 16:18:09 32° WSW 16:25:16 10° S visible
12 Dec 4.9 06:08:23 10° S 06:13:46 41° ESE 06:19:47 10° NE visible
13 Dec 5.6 05:24:42 10° SSE 05:29:24 26° ESE 05:34:35 10° ENE visible
13 Dec 6.9 16:34:23 10° WNW 16:38:56 17° WSW 16:43:42 10° SW visible
14 Dec 6.2 04:41:46 10° SE 04:45:12 16° ESE 04:48:50 10° ENE visible
14 Dec 3.6 06:29:01 10° SW 06:34:52 80° SE 06:41:33 10° NE visible
15 Dec 4.2 05:44:38 10° SSW 05:50:16 54° ESE 05:56:38 10° NE visible
16 Dec 5.0 05:00:39 10° S 05:05:49 35° ESE 05:11:34 10° NE visible
16 Dec 7.1 16:12:25 10° W 16:15:16 12° WSW 16:18:13 10° SW visible
17 Dec 5.7 04:17:13 10° SSE 04:21:31 22° ESE 04:26:12 10° ENE visible
17 Dec 3.4 06:05:38 10° SW 06:11:31 82° NW 06:18:17 10° NE visible
18 Dec 6.1 03:34:49 10° SE 03:37:22 13° ESE 03:40:01 10° ENE visible
18 Dec 3.7 05:21:03 10° SSW 05:26:49 69° SE 05:33:25 10° NE visible
19 Dec 4.4 04:36:48 10° S 04:42:17 45° ESE 04:48:27 10° NE visible
19 Dec 3.8 06:27:21 10° WSW 06:33:10 49° NW 06:39:50 10° NE visible
20 Dec 5.1 03:54:14 16° SSE 03:57:54 29° ESE 04:03:18 10° NE visible
20 Dec 3.4 05:42:20 10° SW 05:48:13 67° NW 05:55:00 10° NE visible
